Weather History for Los Angeles, CA

Change the Weather History Date:

Wednesday, November 19, 2014

  Actual Average Record
Temperature  
Mean Temperature 62 °F 60 °F  
Max Temperature 70 °F 68 °F 90 °F (1989)
Min Temperature 54 °F 52 °F 38 °F (1964)
Degree Days  
Heating Degree Days 3 5  
Month to date heating degree days 28 71  
Since 1 July heating degree days 28 115  
Cooling Degree Days 0 0  
Month to date cooling degree days 28 18  
Year to date cooling degree days 1156 549  
Growing Degree Days 12 (Base 50)    
Moisture  
Dew Point 48 °F    
Average Humidity 57    
Maximum Humidity 78    
Minimum Humidity 36    
Precipitation  
Precipitation 0.00 in 0.04 in 0.82 in (1967)
Month to date precipitation 0.20 0.62  
Year to date precipitation 4.04 10.28  
Since 1 July precipitation 0.63 1.47  
Sea Level Pressure  
Sea Level Pressure 30.11 in    
Wind  
Wind Speed 6 mph (SW)    
Max Wind Speed 14 mph    
Max Gust Speed 17 mph    
Visibility 10 miles    
Events      
T = Trace of Precipitation, MM = Missing Value Source: NWS Daily Summary

Daily Weather History Graph

Daily Weather History Graph

Search for Another Location

Airport:

Trip Planner

Search our weather history database for the weather conditions in past years. The results will help you decide how hot, cold, wet, or windy it might be!

Date:

Astronomy

Nov. 19, 2014 Rise Set
Actual Time 6:29 AM PST 4:47 PM PST
Civil Twilight 6:03 AM PST 5:14 PM PST
Nautical Twilight 5:32 AM PST 5:44 PM PST
Astronomical Twilight 5:02 AM PST 6:14 PM PST
Moon 3:38 AM PST (11/19) 3:11 PM PST (11/19)
Length of Visible Light 11h 11m
Length of Day
10h 18m
Waning Crescent, 8% of the Moon is Illuminated
Nov 19
Waning Crescent
Nov 22
New
Nov 29
First Quarter
Dec 6
Full
Dec 14
Last Quarter

Hourly Weather History & Observations

Time (PST) Temp. Dew Point Humidity Pressure Visibility Wind Dir Wind Speed Gust Speed Precip Events Conditions
12:53 AM 57.0 °F 50.0 °F 77% 30.12 in 10.0 mi ESE 3.5 mph - N/A   Mostly Cloudy
1:53 AM 57.0 °F 46.9 °F 69% 30.12 in 10.0 mi East 3.5 mph - N/A   Mostly Cloudy
2:53 AM 57.0 °F 41.0 °F 55% 30.12 in 10.0 mi Calm Calm - N/A   Mostly Cloudy
3:53 AM 57.0 °F 39.9 °F 53% 30.12 in 10.0 mi East 3.5 mph - N/A   Mostly Cloudy
4:53 AM 57.0 °F 37.0 °F 47% 30.12 in 10.0 mi NE 4.6 mph - N/A   Scattered Clouds
5:53 AM 57.0 °F 37.0 °F 47% 30.12 in 10.0 mi East 3.5 mph - N/A   Mostly Cloudy
6:53 AM 57.0 °F 35.1 °F 44% 30.13 in 10.0 mi ESE 4.6 mph - N/A   Mostly Cloudy
7:53 AM 59.0 °F 32.0 °F 36% 30.14 in 10.0 mi East 5.8 mph - N/A   Mostly Cloudy
8:53 AM 64.0 °F 37.9 °F 38% 30.16 in 10.0 mi East 3.5 mph - N/A   Mostly Cloudy
9:53 AM 66.0 °F 48.0 °F 52% 30.15 in 10.0 mi Calm Calm - N/A   Mostly Cloudy
10:53 AM 68.0 °F 48.0 °F 49% 30.14 in 10.0 mi Calm Calm - N/A   Mostly Cloudy
11:53 AM 69.1 °F 53.1 °F 57% 30.11 in 10.0 mi West 8.1 mph - N/A   Mostly Cloudy
12:53 PM 68.0 °F 52.0 °F 56% 30.10 in 10.0 mi WSW 12.7 mph - N/A   Mostly Cloudy
1:53 PM 68.0 °F 51.1 °F 55% 30.09 in 10.0 mi West 13.8 mph - N/A   Mostly Cloudy
2:53 PM 66.0 °F 52.0 °F 60% 30.08 in 10.0 mi West 11.5 mph - N/A   Mostly Cloudy
3:53 PM 66.0 °F 52.0 °F 60% 30.08 in 10.0 mi WSW 10.4 mph - N/A   Scattered Clouds
4:53 PM 64.0 °F 55.9 °F 75% 30.08 in 10.0 mi West 11.5 mph - N/A   Partly Cloudy
5:53 PM 63.0 °F 55.9 °F 78% 30.09 in 10.0 mi WSW 8.1 mph - N/A   Partly Cloudy
6:53 PM 63.0 °F 55.0 °F 75% 30.11 in 10.0 mi West 11.5 mph - N/A   Partly Cloudy
7:53 PM 63.0 °F 55.0 °F 75% 30.11 in 10.0 mi West 8.1 mph - N/A   Clear
8:53 PM 63.0 °F 55.0 °F 75% 30.11 in 10.0 mi West 11.5 mph - N/A   Clear
9:53 PM 63.0 °F 54.0 °F 72% 30.10 in 10.0 mi WNW 6.9 mph - N/A   Clear
10:53 PM 63.0 °F 50.0 °F 63% 30.09 in 10.0 mi WSW 4.6 mph - N/A   Clear
11:53 PM 60.1 °F 52.0 °F 75% 30.09 in 10.0 mi ESE 3.5 mph - N/A   Clear